Terminal Aerodrome Forecast
Issued by NWS Indianapolis, IN

Home | Current Version | Previous Version | Text Only | Print | Product List | Glossary On
Versions: 1 2 3 4 5 6 7 8 9 10 11 12 13 14 15 16 17 18 19 20 21 22 23 24 25 26 27 28 29
000
FTUS43 KIND 270200 AAA
TAFIND
TAF AMD
KIND 270225Z 2702/2806 34010KT P6SM SCT025 OVC080
     FM270800 33006KT P6SM SCT025
     FM271500 31006KT P6SM BKN040=

USA.gov is the U.S. government's official web portal to all federal, state and local government web resources and services.